Location: Owatonna
(44.0840°N, 93.2260°W)
Time: 13:10:38
(UTC-05:00)

Tiangong 1 - Visible Passes

Search period start: 25 October 2014 00:00
Search period end: 03 November 2014 23:00
Orbit: 351 x 361 km, 42.8° (Epoch: 25 October)

Date Brightness Start Highest point End Pass type
(mag) Time Alt. Az. Time Alt. Az. Time Alt. Az.
25 Oct 2.0 20:03:05 10° WSW 20:05:15 40° SW 20:05:15 40° SW visible
26 Oct 1.9 18:54:23 10° SW 18:57:09 36° SSE 18:59:30 13° E visible
26 Oct 3.7 20:30:07 10° W 20:31:07 19° W 20:31:07 19° W visible
27 Oct 1.1 19:21:06 10° WSW 19:24:03 59° S 19:25:12 31° ESE visible
28 Oct 1.0 19:47:54 10° W 19:50:47 68° SSW 19:50:47 68° SSW visible
29 Oct 1.2 18:38:39 10° WSW 18:41:36 64° S 18:44:33 10° E visible
29 Oct 3.0 20:14:38 10° W 20:16:14 27° WSW 20:16:14 27° WSW visible
30 Oct 1.1 19:05:12 10° W 19:08:10 68° S 19:10:00 21° ESE visible
30 Oct 4.5 20:41:20 10° W 20:41:35 12° W 20:41:35 12° W visible
31 Oct 1.5 19:31:41 10° W 19:34:35 49° SSW 19:35:16 38° SSE visible
01 Nov 2.7 19:58:11 10° W 20:00:30 26° SSW 20:00:30 26° SSW visible
02 Nov 1.9 17:48:15 10° W 17:51:06 43° SSW 17:53:56 10° ESE visible
02 Nov 4.2 19:25:16 10° WSW 19:25:42 11° SW 19:25:42 11° SW visible
03 Nov 3.0 18:14:34 10° W 18:17:00 23° SSW 18:19:20 11° SSE visible
